WGS 10 (USA 291)

Last updated on Sun Apr 12 2026 00:02:55 GMT+0000 (Coordinated Universal Time)

1 44071U 19014A 26101.86538370 .00000000 00000+0 00000+0 0 9999 2 44071 0.0168 198.1694 0000281 152.2840 221.4595 1.00270468 25951
UTC large
Height (km)
Speed (km/s)
/
Latitude / Longitude
Inclination (degrees)
Orbital Period (minutes)
Azimuth
Elevation
Range (km)
Doppler Factor

Next 0 passes for location: London (51.5072 / 0.1276)

Sorry there are no passes over London.
WGS 10 (USA 291)